Home > Weather > Częstochowa > Past weeks

Flag for Poland Past Weather in Częstochowa, Poland — Yesterday and Last 2 Weeks

Now
81 °F

Passing clouds.


Feels Like: 81 °F
Forecast: 62 / 85 °F
Wind: 6 mph from North

Location: Katowice Airport

Current Time: Jul 24, 2016 at 2:50:15 PM

Latest Report: Jul 24, 2016 at 2:00 PM


Visibility: N/A

Pressure: 30.09 "Hg

Humidity: 48%

Dew Point: 59 °F

Location of CzęstochowaLocation

Past Weather in Częstochowa — Graph

°F

Częstochowa Temperature Yesterday

Maximum temperature yesterday: 79 °F (at 1:30 PM)
Minimum temperature yesterday: 46 °F (at 4:30 AM)
Average temperature yesterday: 66 °F

High & Low Weather Summary for the Past Weeks

 TemperatureHumidityPressure
High90 °F (Jul 11, 3:00 PM)100% (Jul 12, 9:30 AM)30.21 "Hg (Jul 12, 9:30 AM)
Low46 °F (Jul 21, 4:00 AM)36% (Jul 22, 6:30 PM)29.59 "Hg (Jul 14, 10:00 AM)
Average64 °F77%30.01 "Hg
* Reported Jul 9 1:00 PM — Jul 24 1:30 PM, Częstochowa, Weather by CustomWeather, © 2016

Note: Actual official high and low records may vary slightly from our data, if they occured in-between our weather recording intervals... More about our weather records

Advertising

Częstochowa Weather History for the Previous 24 Hours

Scroll right to see more
 ConditionsComfort  
Time TempWeatherWind HumidityBarometerVisibility
1:30 PM
Sun, Jul 24
81 °FScattered clouds.3 mph48%30.09 "HgN/A
1:00 PM79 °FPassing clouds.8 mph48%30.09 "HgN/A
12:30 PM79 °FPassing clouds.6 mph51%30.09 "HgN/A
12:00 PM77 °FSunny.9 mph57%30.09 "Hg10 mi
11:30 AM77 °FPassing clouds.9 mph54%30.09 "HgN/A
11:00 AM77 °FPassing clouds.7 mph54%30.09 "HgN/A
10:30 AM77 °FPassing clouds.7 mph54%30.09 "HgN/A
10:00 AM73 °FPassing clouds.6 mph65%30.09 "HgN/A
9:30 AM73 °FSunny.6 mph65%30.09 "Hg10 mi
9:00 AM72 °FSunny.6 mph69%30.09 "Hg10 mi
8:30 AM70 °FSunny.7 mph78%30.09 "Hg10 mi
8:00 AM68 °FSunny.8 mph78%30.07 "Hg10 mi
7:30 AM68 °FSunny.7 mph78%30.09 "Hg10 mi
7:00 AM64 °FSunny.7 mph83%30.09 "Hg10 mi
6:30 AM61 °FSunny.6 mph94%30.07 "Hg10 mi
6:00 AM57 °FClear.1 mph94%30.09 "Hg5 mi
5:30 AM57 °FFog.3 mph94%30.09 "Hg5 mi
5:00 AM55 °FFog.5 mph100%30.09 "Hg2 mi
4:30 AM55 °FFog.2 mph94%30.09 "Hg3 mi
4:00 AM57 °FFog.3 mph94%30.09 "Hg3 mi
3:30 AM57 °FFog.2 mph100%30.09 "Hg3 mi
3:00 AM57 °FFog.2 mph100%30.09 "Hg3 mi
2:30 AM59 °FClear.3 mph94%30.09 "Hg10 mi
2:00 AM59 °FClear.2 mph94%30.09 "Hg10 mi
1:30 AM63 °FClear.5 mph88%30.09 "Hg10 mi
1:00 AM61 °FClear.5 mph94%30.09 "Hg6 mi
12:30 AM61 °FClear.3 mph88%30.09 "Hg10 mi
12:00 AM61 °FClear.3 mph94%30.09 "Hg10 mi
11:30 PM
Sat, Jul 23
63 °FPassing clouds.5 mph88%30.09 "HgN/A
11:00 PM64 °FClear.5 mph83%30.09 "Hg10 mi
10:30 PM64 °FClear.5 mph83%30.09 "Hg10 mi
10:00 PM66 °FClear.5 mph83%30.07 "Hg10 mi
9:30 PM68 °FSunny.6 mph78%30.07 "Hg10 mi
9:00 PM70 °FSunny.6 mph73%30.07 "Hg10 mi
8:30 PM72 °FSunny.7 mph69%30.07 "Hg10 mi
8:00 PM72 °FSunny.6 mph69%30.07 "Hg10 mi
7:30 PM73 °FSunny.7 mph65%30.07 "Hg10 mi
7:00 PM75 °FSunny.7 mph61%30.07 "Hg10 mi
6:30 PM77 °FSunny.6 mph54%30.07 "Hg10 mi
6:00 PM77 °FPassing clouds.6 mph54%30.07 "HgN/A
5:30 PM77 °FPassing clouds.8 mph54%30.07 "HgN/A
5:00 PM79 °FPassing clouds.7 mph51%30.07 "HgN/A
4:30 PM77 °FPassing clouds.5 mph51%30.07 "HgN/A
4:00 PM79 °FPassing clouds.6 mph45%30.07 "HgN/A
3:30 PM79 °FPassing clouds.6 mph45%30.07 "HgN/A
3:00 PM79 °FPassing clouds.6 mph45%30.07 "HgN/A
2:30 PM79 °FPassing clouds.5 mph48%30.07 "HgN/A
2:00 PM79 °FPassing clouds.6 mph45%30.07 "HgN/A
Weather by CustomWeather, © 2016

See weather overviewHow to use our weather pages